Location: ????????
(56.0167°N, 38.0333°E)
Time: 04:39:39
(UTC+00:00)

Cosmos 1066 Rocket - Pass Details

Date: 19 May 2025
Orbit: 798 x 892 km, 81.2° (Epoch: 19 June)

Event Time Altitude Azimuth Distance (km) Brightness Sun altitude
Exits shadow 21:23:05 20° 187° (S) 1,863 5.4 -14.0°
Maximum altitude 21:27:04 81° 102° (ESE) 883 4.3 -14.0°
Drops below altitude 10° 21:32:53 10° 16° (NNE) 2,548 8.0 -14.0°
Sets 21:35:21 0° 16° (NNE) 3,500 9.1 -14.0°
